Weather History for KOLE - November, 2012

Change the Weather History Date:

Monday, November 26, 2012

  Actual Average (KBFD) Record (KBFD)
Temperature  
Mean Temperature 30 °F 33 °F  
Max Temperature 32 °F 40 °F 62 °F (2006)
Min Temperature 28 °F 26 °F 6 °F (1974)
Degree Days  
Heating Degree Days 35 27  
Month to date heating degree days 589  
Since 1 July heating degree days 1582  
Cooling Degree Days 0 0  
Month to date cooling degree days 0  
Year to date cooling degree days 193  
Moisture  
Dew Point 23 °F    
Average Humidity 76    
Maximum Humidity 86    
Minimum Humidity 69    
Precipitation  
Precipitation 0.00 in 0.13 in 1.61 in (1985)
Month to date precipitation 3.23  
Year to date precipitation 40.53  
Sea Level Pressure  
Sea Level Pressure 30.03 in    
Wind  
Wind Speed 5 mph ()    
Max Wind Speed 12 mph    
Max Gust Speed 18 mph    
Visibility 10.0 miles    
Events      
T = Trace of Precipitation, MM = Missing Value Source: Averaged Metar Reports

Daily Weather History Graph

Daily Weather History Graph

Search for Another Location

Airport or City:

Trip Planner

Search our weather history database for the weather conditions in past years. The results will help you decide how hot, cold, wet, or windy it might be!

Date:

Astronomy

Nov. 26, 2012 Rise Set
Actual Time 7:17 AM EST 4:43 PM EST
Civil Twilight 6:46 AM EST 5:14 PM EST
Nautical Twilight 6:12 AM EST 5:49 PM EST
Astronomical Twilight 5:38 AM EST 6:23 PM EST
Moon 3:36 PM EST (11/26) 5:24 AM EST (11/26)
Length of Visible Light 10h 28m
Length of Day
9h 26m
Waxing Gibbous, 97% of the Moon is Illuminated
Nov 26
Waxing Gibbous
Nov 28
Full
Dec 6
Last Quarter
Dec 13
New
Dec 20
First Quarter

Hourly Weather History & Observations

Time (EST) Temp. Windchill Dew Point Humidity Pressure Visibility Wind Dir Wind Speed Gust Speed Precip Events Conditions
12:15 AM 30.2 °F 24.3 °F 26.6 °F 86% 29.83 in 10.0 mi West 5.8 mph - N/A   Overcast
12:35 AM 30.2 °F 24.3 °F 26.6 °F 86% 29.84 in 10.0 mi West 5.8 mph 17.3 mph N/A   Overcast
12:55 AM 30.2 °F 23.4 °F 26.6 °F 86% 29.84 in 10.0 mi West 6.9 mph - N/A   Overcast
1:15 AM 30.2 °F 21.9 °F 24.8 °F 80% 29.84 in 10.0 mi West 9.2 mph - N/A   Overcast
1:35 AM 30.2 °F 22.6 °F 24.8 °F 80% 29.85 in 10.0 mi WNW 8.1 mph - N/A   Overcast
1:55 AM 30.2 °F 23.4 °F 23.0 °F 75% 29.86 in 10.0 mi West 6.9 mph - N/A   Overcast
2:15 AM 30.2 °F 25.4 °F 23.0 °F 75% 29.86 in 10.0 mi WNW 4.6 mph - N/A   Overcast
2:35 AM 30.2 °F 25.4 °F 23.0 °F 75% 29.88 in 10.0 mi West 4.6 mph - N/A   Overcast
2:55 AM 30.2 °F 24.3 °F 23.0 °F 75% 29.88 in 10.0 mi West 5.8 mph - N/A   Overcast
3:15 AM 30.2 °F 20.8 °F 23.0 °F 75% 29.88 in 10.0 mi WNW 11.5 mph 18.4 mph N/A   Overcast
3:35 AM 30.2 °F 22.6 °F 23.0 °F 75% 29.89 in 10.0 mi West 8.1 mph - N/A   Overcast
3:55 AM 30.2 °F 24.3 °F 23.0 °F 75% 29.89 in 10.0 mi West 5.8 mph - N/A   Overcast
4:15 AM 30.2 °F 22.6 °F 23.0 °F 75% 29.91 in 10.0 mi West 8.1 mph - N/A   Overcast
4:35 AM 30.2 °F 25.4 °F 21.2 °F 69% 29.92 in 10.0 mi West 4.6 mph - N/A   Overcast
4:55 AM 28.4 °F 22.2 °F 21.2 °F 74% 29.93 in 10.0 mi West 5.8 mph - N/A   Mostly Cloudy
5:15 AM 28.4 °F 21.2 °F 21.2 °F 74% 29.94 in 10.0 mi West 6.9 mph - N/A   Overcast
5:35 AM 28.4 °F 22.2 °F 21.2 °F 74% 29.95 in 10.0 mi West 5.8 mph - N/A   Overcast
5:55 AM 28.4 °F 22.2 °F 21.2 °F 74% 29.95 in 10.0 mi West 5.8 mph - N/A   Overcast
6:15 AM 28.4 °F 22.2 °F 21.2 °F 74% 29.96 in 10.0 mi West 5.8 mph - N/A   Overcast
6:35 AM 28.4 °F 22.2 °F 23.0 °F 80% 29.97 in 10.0 mi West 5.8 mph - N/A   Overcast
6:55 AM 28.4 °F 22.2 °F 23.0 °F 80% 29.97 in 10.0 mi West 5.8 mph - N/A   Overcast
7:15 AM 28.4 °F 23.3 °F 23.0 °F 80% 29.99 in 10.0 mi West 4.6 mph - N/A   Overcast
7:35 AM 28.4 °F 24.6 °F 21.2 °F 74% 29.99 in 10.0 mi West 3.5 mph - N/A   Overcast
7:55 AM 28.4 °F 23.3 °F 21.2 °F 74% 29.99 in 10.0 mi West 4.6 mph - N/A   Scattered Clouds
8:15 AM 28.4 °F 24.6 °F 21.2 °F 74% 30.00 in 10.0 mi West 3.5 mph - N/A   Scattered Clouds
8:35 AM 30.2 °F 22.6 °F 21.2 °F 69% 30.01 in 10.0 mi West 8.1 mph - N/A   Mostly Cloudy
8:55 AM 30.2 °F 24.3 °F 21.2 °F 69% 30.02 in 10.0 mi West 5.8 mph - N/A   Mostly Cloudy
9:15 AM 30.2 °F 22.6 °F 21.2 °F 69% 30.03 in 10.0 mi West 8.1 mph 16.1 mph N/A   Overcast
9:35 AM 30.2 °F 24.3 °F 23.0 °F 75% 30.04 in 10.0 mi WNW 5.8 mph - N/A   Overcast
9:55 AM 30.2 °F 24.3 °F 21.2 °F 69% 30.04 in 10.0 mi West 5.8 mph - N/A   Overcast
10:15 AM 30.2 °F 24.3 °F 21.2 °F 69% 30.05 in 10.0 mi West 5.8 mph - N/A   Overcast
10:35 AM 30.2 °F 26.7 °F 21.2 °F 69% 30.05 in 10.0 mi West 3.5 mph - N/A   Overcast
10:55 AM 30.2 °F 22.6 °F 21.2 °F 69% 30.06 in 10.0 mi WSW 8.1 mph - N/A   Overcast
11:15 AM 30.2 °F 25.4 °F 21.2 °F 69% 30.06 in 10.0 mi West 4.6 mph - N/A   Overcast
11:35 AM 30.2 °F 26.7 °F 23.0 °F 75% 30.06 in 10.0 mi West 3.5 mph - N/A   Overcast
11:55 AM 30.2 °F 25.4 °F 23.0 °F 75% 30.06 in 10.0 mi West 4.6 mph - N/A   Overcast
12:15 PM 30.2 °F - 23.0 °F 75% 30.05 in 10.0 mi Calm Calm - N/A   Overcast
12:35 PM 30.2 °F - 23.0 °F 75% 30.06 in 10.0 mi Calm Calm - N/A   Overcast
12:55 PM 30.2 °F 26.7 °F 23.0 °F 75% 30.06 in 10.0 mi West 3.5 mph - N/A   Overcast
1:15 PM 32.0 °F 28.7 °F 23.0 °F 69% 30.06 in 10.0 mi WSW 3.5 mph - N/A   Overcast
1:35 PM 32.0 °F 28.7 °F 23.0 °F 69% 30.06 in 10.0 mi WSW 3.5 mph - N/A   Overcast
1:55 PM 30.2 °F 24.3 °F 23.0 °F 75% 30.07 in 10.0 mi West 5.8 mph - N/A   Overcast
2:15 PM 30.2 °F 24.3 °F 23.0 °F 75% 30.07 in 10.0 mi West 5.8 mph - N/A   Overcast
2:35 PM 32.0 °F 28.7 °F 23.0 °F 69% 30.07 in 10.0 mi WSW 3.5 mph - N/A   Overcast
2:55 PM 32.0 °F 27.5 °F 23.0 °F 69% 30.07 in 10.0 mi West 4.6 mph - N/A   Overcast
3:15 PM 32.0 °F 26.4 °F 23.0 °F 69% 30.07 in 10.0 mi WSW 5.8 mph - N/A   Overcast
3:35 PM 32.0 °F 27.5 °F 23.0 °F 69% 30.08 in 10.0 mi WSW 4.6 mph - N/A   Overcast
3:55 PM 32.0 °F 27.5 °F 23.0 °F 69% 30.08 in 10.0 mi WSW 4.6 mph - N/A   Overcast
4:15 PM 30.2 °F 24.3 °F 23.0 °F 75% 30.09 in 10.0 mi West 5.8 mph - N/A   Overcast
4:35 PM 30.2 °F 25.4 °F 23.0 °F 75% 30.09 in 10.0 mi West 4.6 mph - N/A   Overcast
4:55 PM 30.2 °F 24.3 °F 23.0 °F 75% 30.09 in 10.0 mi WSW 5.8 mph - N/A   Overcast
5:15 PM 30.2 °F 25.4 °F 23.0 °F 75% 30.10 in 10.0 mi WSW 4.6 mph - N/A   Overcast
5:35 PM 30.2 °F 26.7 °F 23.0 °F 75% 30.11 in 10.0 mi WSW 3.5 mph - N/A   Overcast
5:55 PM 30.2 °F 24.3 °F 24.8 °F 80% 30.11 in 10.0 mi West 5.8 mph - N/A   Overcast
6:15 PM 30.2 °F 25.4 °F 24.8 °F 80% 30.11 in 10.0 mi West 4.6 mph - N/A   Overcast
6:35 PM 30.2 °F 25.4 °F 24.8 °F 80% 30.11 in 10.0 mi West 4.6 mph - N/A   Overcast
6:55 PM 30.2 °F - 24.8 °F 80% 30.11 in 10.0 mi Calm Calm - N/A   Overcast
7:15 PM 30.2 °F 24.3 °F 24.8 °F 80% 30.11 in 10.0 mi West 5.8 mph - N/A   Overcast
7:35 PM 30.2 °F 25.4 °F 24.8 °F 80% 30.12 in 10.0 mi West 4.6 mph - N/A   Overcast
7:55 PM 30.2 °F - 24.8 °F 80% 30.12 in 10.0 mi Calm Calm - N/A   Overcast
8:15 PM 30.2 °F 25.4 °F 23.0 °F 75% 30.12 in 10.0 mi WNW 4.6 mph - N/A   Overcast
8:35 PM 28.4 °F 22.2 °F 23.0 °F 80% 30.13 in 10.0 mi WNW 5.8 mph - N/A   Overcast
8:55 PM 28.4 °F 22.2 °F 23.0 °F 80% 30.12 in 10.0 mi WNW 5.8 mph - N/A   Overcast
9:15 PM 28.4 °F 24.6 °F 23.0 °F 80% 30.13 in 10.0 mi West 3.5 mph - N/A   Overcast
9:35 PM 28.4 °F 23.3 °F 23.0 °F 80% 30.14 in 10.0 mi West 4.6 mph - N/A   Overcast
9:55 PM 28.4 °F - 23.0 °F 80% 30.14 in 10.0 mi Calm Calm - N/A   Overcast
10:15 PM 28.4 °F - 23.0 °F 80% 30.14 in 10.0 mi Calm Calm - N/A   Overcast
10:35 PM 28.4 °F - 23.0 °F 80% 30.15 in 10.0 mi Calm Calm - N/A   Overcast
10:55 PM 28.4 °F 24.6 °F 23.0 °F 80% 30.15 in 10.0 mi WSW 3.5 mph - N/A   Overcast
11:15 PM 28.4 °F - 23.0 °F 80% 30.15 in 10.0 mi Calm Calm - N/A   Overcast
11:35 PM 28.4 °F - 23.0 °F 80% 30.15 in 10.0 mi Calm Calm - N/A   Overcast
11:55 PM 28.4 °F - 23.0 °F 80% 30.15 in 10.0 mi Calm Calm - N/A   Overcast